FENGYUN 1C DEB, 31727

Orbit data source: Space-Track

FENGYUN 1C DEB, 31727 is space debris in SSO originally from a launch on Mon, 10 May 1999 UTC launched from the Taiyaun Space Center, China (TSC). Fengyun 1C debris stems from the Chinese weather satellite Fengyun-1C, which was intentionally destroyed by a Chinese anti-satellite missile in 2007. This event dramatically increased the amount of space debris, with thousands of trackable fragments posing hazards to satellites and human spaceflight. The Fengyun 1C debris cloud has become a focal point in discussions about space sustainability and the need for international regulations to prevent the creation of new debris.

Loading next visibility...
Identifier
31727, 1999-025CEA
Orbit
SSO
Country
Flag of CNCN / PRC
Related business
Manufacturer
Unknown
Mission
Spacecraft
Bus & Motor
Unknown
Mass
Unknown
Launch date (UTC)
1999-05-10 (27 years ago)
Launch vehicle
Unknown
Launch site
Taiyaun Space Center, China (TSC)
Object type
Payload
Rocket body
Debris
Shape & HBR
Unknown shape, 0.1 m
Radar Cross Section
Small (<0.1 m²)

Expand to show TLE details & history
Last TLE update: 4 days ago

TLE from 4 days ago
0 FENGYUN 1C DEB
1 31727U 99025CEA 26161.12019503  .00004863  00000-0  15654-2 0  9996
2 31727  98.8721 283.9917 0032465 168.8428   8.4698 14.39465706742477
Epoch: 2026-06-10T02:53Z
TLE epoch observation values (Epoch: 2026-06-10T02:53:04.850Z)
Latitude
2.49901°
Longitude
162.62683°
Altitude
739.985 km
Speed
7.497 km/s
True Right ascension
06h 57m 31s
True Declination
2° 29' 03"
Sunlit
Object was in daylight at epoch
Visualization orbit readout
Latitude
Unknown
Longitude
Unknown
Altitude
Unknown
Speed
Unknown
Apparent Right ascension
Unknown
Apparent Declination
Unknown
Sunlit
N/A
Visualization observer readout
Local Sidereal Time
13:38:43
Azimuth
Unknown
Elevation
Unknown
Doppler factor
Unknown
Orbital elements
Apogee altitude
780.57 km
Perigee altitude
734.239 km
Semi-major axis
7,135.542 km
Eccentricity
0.00325
Inclination
98.8721°
RAAN
283.9917°
Arg. of periapsis
168.8428°
True anomaly
8.52482°
Mean anomaly
8.4698°
Eccentric anomaly
8.49729°
Mean motion
3.60083 °/min
Orbital period
99.98 mins
BSTAR
0.0015654
Loading maneuver chart data...
Computing Atmospheric mass density...

Documentation

Showing up to 5 results
|